Bend, OR

8:25 PM PDT on August 30, 2016 (GMT -0700)
Bend Municipal

Weather History for KBDN - February, 2014

Change the Weather History Date:

Tuesday, February 11, 2014

  Actual Average (KRDM) Record (KRDM)
Temperature  
Mean Temperature 40 °F 35 °F  
Max Temperature 44 °F 46 °F 67 °F (1988)
Min Temperature 37 °F 24 °F 13 °F (2006)
Degree Days  
Heating Degree Days 24 30  
Month to date heating degree days 337  
Since 1 July heating degree days 4177  
Cooling Degree Days 0 0  
Month to date cooling degree days 0  
Year to date cooling degree days 0  
Moisture  
Dew Point 32 °F    
Average Humidity 72    
Maximum Humidity 93    
Minimum Humidity 61    
Precipitation  
Precipitation 0.03 in 0.03 in 0.41 in (1958)
Month to date precipitation 0.28  
Year to date precipitation 1.25  
Sea Level Pressure  
Sea Level Pressure 30.08 in    
Wind  
Wind Speed 12 mph (SSW)    
Max Wind Speed 17 mph    
Max Gust Speed 23 mph    
Visibility 10 miles    
Events Rain    
T = Trace of Precipitation, MM = Missing Value Source: NWS Daily Summary

Daily Weather History Graph

Daily Weather History Graph

Search for Another Location

Airport or City:

Trip Planner

Search our weather history database for the weather conditions in past years. The results will help you decide how hot, cold, wet, or windy it might be!

Date:

Astronomy

Feb. 11, 2014 Rise Set
Actual Time 7:09 AM PST 5:29 PM PST
Civil Twilight 6:39 AM PST 5:58 PM PST
Nautical Twilight 6:05 AM PST 6:33 PM PST
Astronomical Twilight 5:32 AM PST 7:06 PM PST
Moon 2:51 PM PST (2/11) 4:53 AM PST (2/11)
Length of Visible Light 11h 19m
Length of Day
10h 19m
Waxing Gibbous, 91% of the Moon is Illuminated
Feb 11
Waxing Gibbous
Feb 14
Full
Feb 22
Last Quarter
Mar 1
New
Mar 8
First Quarter

Hourly Weather History & Observations

Time (PST) Temp. Windchill Dew Point Humidity Pressure Visibility Wind Dir Wind Speed Gust Speed Precip Events Conditions
12:15 AM 39.2 °F 32.5 °F 26.6 °F 61% 30.16 in 10.0 mi SSW 10.4 mph 16.1 mph N/A   Partly Cloudy
12:35 AM 39.2 °F 31.6 °F 26.6 °F 61% 30.16 in 6.0 mi South 12.7 mph - N/A   Haze
12:55 AM 39.2 °F 31.2 °F 26.6 °F 61% 30.14 in 9.0 mi SSW 13.8 mph - N/A   Scattered Clouds
1:15 AM 39.2 °F 32.0 °F 28.4 °F 65% 30.13 in 7.0 mi SSW 11.5 mph - N/A   Clear
1:35 AM 37.4 °F 30.3 °F 28.4 °F 70% 30.13 in 10.0 mi SSW 10.4 mph - N/A   Clear
1:55 AM 37.4 °F 29.3 °F 28.4 °F 70% 30.13 in 10.0 mi SSW 12.7 mph - N/A   Clear
2:15 AM 37.4 °F 28.5 °F 28.4 °F 70% 30.13 in 10.0 mi SW 15.0 mph - N/A   Clear
2:35 AM 39.2 °F 30.8 °F 28.4 °F 65% 30.13 in 10.0 mi SW 15.0 mph 20.7 mph N/A   Clear
2:55 AM 39.2 °F 30.8 °F 28.4 °F 65% 30.13 in 10.0 mi SW 15.0 mph 20.7 mph N/A   Clear
3:15 AM 39.2 °F 30.8 °F 28.4 °F 65% 30.13 in 10.0 mi SSW 15.0 mph 23.0 mph N/A   Clear
3:35 AM 39.2 °F 30.2 °F 28.4 °F 65% 30.13 in 10.0 mi SW 17.3 mph 20.7 mph N/A   Partly Cloudy
3:55 AM 39.2 °F 30.2 °F 28.4 °F 65% 30.13 in 10.0 mi SSW 17.3 mph - N/A   Partly Cloudy
4:15 AM 37.4 °F 29.8 °F 28.4 °F 70% 30.13 in 10.0 mi SW 11.5 mph - N/A   Clear
4:35 AM 39.2 °F 30.5 °F 30.2 °F 70% 30.13 in 10.0 mi SW 16.1 mph 19.6 mph N/A   Clear
4:55 AM 39.2 °F 31.2 °F 30.2 °F 70% 30.13 in 10.0 mi SSW 13.8 mph 20.7 mph N/A   Clear
5:15 AM 37.4 °F 29.3 °F 30.2 °F 75% 30.13 in 10.0 mi SW 12.7 mph - N/A   Clear
5:35 AM 37.4 °F 29.8 °F 30.2 °F 75% 30.13 in 10.0 mi SW 11.5 mph 19.6 mph N/A   Clear
5:55 AM 37.4 °F 28.9 °F 28.4 °F 70% 30.14 in 10.0 mi SW 13.8 mph - N/A   Clear
6:15 AM 37.4 °F 28.2 °F 30.2 °F 75% 30.14 in 10.0 mi SW 16.1 mph - N/A   Partly Cloudy
6:35 AM 39.2 °F 30.8 °F 30.2 °F 70% 30.14 in 10.0 mi SW 15.0 mph - N/A   Clear
6:55 AM 37.4 °F 28.9 °F 30.2 °F 75% 30.15 in 10.0 mi SW 13.8 mph 18.4 mph N/A   Clear
7:15 AM 37.4 °F 30.3 °F 30.2 °F 75% 30.15 in 10.0 mi SSW 10.4 mph 17.3 mph N/A   Clear
7:35 AM 37.4 °F 29.8 °F 30.2 °F 75% 30.15 in 10.0 mi SW 11.5 mph 17.3 mph N/A   Partly Cloudy
7:55 AM 39.2 °F 31.6 °F 30.2 °F 70% 30.15 in 10.0 mi SW 12.7 mph 18.4 mph N/A   Scattered Clouds
8:15 AM 39.2 °F 31.2 °F 32.0 °F 75% 30.15 in 10.0 mi SW 13.8 mph - N/A   Partly Cloudy
8:35 AM 39.2 °F 30.5 °F 32.0 °F 75% 30.14 in 10.0 mi SW 16.1 mph 23.0 mph N/A   Clear
8:55 AM 39.2 °F 30.8 °F 32.0 °F 75% 30.13 in 10.0 mi SSW 15.0 mph - N/A   Clear
9:15 AM 39.2 °F 31.2 °F 32.0 °F 75% 30.15 in 10.0 mi SW 13.8 mph 21.9 mph N/A   Partly Cloudy
9:35 AM 41.0 °F 32.8 °F 32.0 °F 70% 30.15 in 10.0 mi SW 16.1 mph - N/A   Clear
9:55 AM 41.0 °F 33.5 °F 32.0 °F 70% 30.17 in 10.0 mi SW 13.8 mph 19.6 mph N/A   Clear
10:15 AM 41.0 °F 33.9 °F 32.0 °F 70% 30.16 in 10.0 mi SW 12.7 mph - N/A   Clear
10:35 AM 41.0 °F 33.9 °F 32.0 °F 70% 30.16 in 10.0 mi SW 12.7 mph - N/A   Partly Cloudy
10:55 AM 41.0 °F 33.1 °F 32.0 °F 70% 30.17 in 10.0 mi SW 15.0 mph 19.6 mph N/A   Partly Cloudy
11:15 AM 41.0 °F 33.9 °F 32.0 °F 70% 30.17 in 10.0 mi SW 12.7 mph 21.9 mph N/A   Partly Cloudy
11:35 AM 41.0 °F 33.9 °F 32.0 °F 70% 30.16 in 10.0 mi SW 12.7 mph - N/A   Partly Cloudy
11:55 AM 41.0 °F 33.5 °F 32.0 °F 70% 30.15 in 10.0 mi SW 13.8 mph - N/A   Clear
12:15 PM 41.0 °F 33.5 °F 32.0 °F 70% 30.14 in 10.0 mi SSW 13.8 mph 19.6 mph N/A   Clear
12:35 PM 42.8 °F 35.4 °F 32.0 °F 66% 30.13 in 10.0 mi SW 15.0 mph 20.7 mph N/A   Clear
12:55 PM 44.6 °F 37.8 °F 32.0 °F 61% 30.13 in 10.0 mi SSW 15.0 mph 18.4 mph N/A   Clear
1:15 PM 44.6 °F 39.2 °F 32.0 °F 61% 30.12 in 10.0 mi SSW 10.4 mph - N/A   Clear
1:35 PM 44.6 °F 38.1 °F 32.0 °F 61% 30.11 in 10.0 mi SSW 13.8 mph 18.4 mph N/A   Clear
1:55 PM 44.6 °F 38.1 °F 32.0 °F 61% 30.11 in 10.0 mi SSW 13.8 mph - N/A   Clear
2:15 PM 44.6 °F 38.8 °F 32.0 °F 61% 30.11 in 10.0 mi SSW 11.5 mph - N/A   Mostly Cloudy
2:35 PM 42.8 °F 38.6 °F 32.0 °F 66% 30.10 in 10.0 mi SSW 6.9 mph - N/A   Mostly Cloudy
2:55 PM 44.6 °F 40.2 °F 32.0 °F 61% 30.09 in 10.0 mi South 8.1 mph - N/A   Partly Cloudy
3:15 PM 44.6 °F 40.7 °F 32.0 °F 61% 30.09 in 10.0 mi South 6.9 mph - N/A   Clear
3:35 PM 44.6 °F 42.2 °F 32.0 °F 61% 30.08 in 10.0 mi South 4.6 mph - N/A   Clear
3:55 PM 42.8 °F 37.0 °F 32.0 °F 66% 30.07 in 10.0 mi SSW 10.4 mph - N/A   Clear
4:15 PM 42.8 °F 36.6 °F 32.0 °F 66% 30.07 in 10.0 mi South 11.5 mph - N/A   Clear
4:35 PM 42.8 °F 35.8 °F 32.0 °F 66% 30.06 in 10.0 mi South 13.8 mph - N/A   Clear
4:55 PM 42.8 °F 35.8 °F 32.0 °F 66% 30.06 in 10.0 mi SSW 13.8 mph - N/A   Clear
5:15 PM 41.0 °F 35.8 °F 32.0 °F 70% 30.05 in 10.0 mi SSW 8.1 mph - N/A   Clear
5:35 PM 41.0 °F 34.7 °F 33.8 °F 76% 30.06 in 10.0 mi SSW 10.4 mph - N/A   Clear
5:55 PM 41.0 °F 34.7 °F 33.8 °F 76% 30.05 in 10.0 mi South 10.4 mph - N/A Rain Light Rain
6:15 PM 41.0 °F 34.7 °F 35.6 °F 81% 30.04 in 10.0 mi South 10.4 mph - N/A Rain Light Rain
6:35 PM 39.2 °F 34.2 °F 33.8 °F 81% 30.04 in 10.0 mi SSE 6.9 mph - N/A   Clear
6:55 PM 39.2 °F 35.9 °F 33.8 °F 81% 30.03 in 10.0 mi SE 4.6 mph - N/A   Partly Cloudy
7:15 PM 39.2 °F 35.9 °F 32.0 °F 75% 30.02 in 10.0 mi SE 4.6 mph - N/A   Clear
7:35 PM 39.2 °F 33.0 °F 32.0 °F 75% 30.01 in 10.0 mi South 9.2 mph - N/A   Clear
7:55 PM 41.0 °F 37.1 °F 32.0 °F 70% 30.00 in 10.0 mi South 5.8 mph - N/A   Clear
8:15 PM 39.2 °F 31.6 °F 33.8 °F 81% 29.99 in 9.0 mi South 12.7 mph 18.4 mph N/A Rain Light Rain
8:35 PM 39.2 °F 34.2 °F 33.8 °F 81% 29.98 in 10.0 mi South 6.9 mph - N/A Rain Light Rain
8:55 PM 39.2 °F 34.2 °F 33.8 °F 81% 29.97 in 10.0 mi South 6.9 mph - N/A Rain Light Rain
9:15 PM 37.4 °F 31.4 °F 35.6 °F 93% 29.96 in 7.0 mi South 8.1 mph - N/A Rain Light Rain
9:35 PM 39.2 °F 30.8 °F 33.8 °F 81% 29.95 in 7.0 mi South 15.0 mph 21.9 mph 0.01 in Rain Light Rain
9:55 PM 37.4 °F 30.3 °F 35.6 °F 93% 29.93 in 7.0 mi SSE 10.4 mph - 0.02 in Rain Light Rain
10:15 PM 39.2 °F 32.5 °F 35.6 °F 87% 29.92 in 5.0 mi South 10.4 mph 18.4 mph N/A Rain Light Rain
10:35 PM 39.2 °F 35.0 °F 35.6 °F 87% 29.92 in 6.0 mi South 5.8 mph - N/A Rain Light Rain
10:55 PM 39.2 °F 33.0 °F 35.6 °F 87% 29.90 in 7.0 mi South 9.2 mph - 0.01 in Rain Light Rain
11:15 PM 39.2 °F 34.2 °F 35.6 °F 87% 29.90 in 9.0 mi SSE 6.9 mph - N/A Rain Light Rain
11:35 PM 39.2 °F 32.0 °F 33.8 °F 81% 29.89 in 9.0 mi South 11.5 mph 18.4 mph N/A Rain Light Rain
11:55 PM 39.2 °F 31.2 °F 33.8 °F 81% 29.87 in 9.0 mi South 13.8 mph 23.0 mph N/A Rain Light Rain